Weather Roundup
Issued by NWS

Home | Current Version | Previous Version | Graphics & Text | Print | Product List | Glossary Off
Versions: 1 2 3 4 5 6 7 8 9 10 11 12 13 14 15 16 17 18 19 20 21 22 23 24 25 26 27 28 29 30 31 32 33 34 35 36 37 38 39 40 41 42 43 44 45 46 47 48 49 50

804
NZUS93 KARX 181610
HRRWXR

CURRENT HOURLY OBSERVATIONS ACROSS
MUCH OF THE UPPER MISSISSIPPI VALLEY
NATIONAL WEATHER SERVICE LA CROSSE WI
1000 AM CST SUN FEB 18 2018


...SOUTHEAST MINNESOTA...


CITY           SKY/WX    TMP DP  RH WIND       PRES   REMARKS
ROCHESTER      FAIR      28  24  85 S28G41    29.84F WCI  13
ROCHESTER/MAYO FAIR      30  24  78 SE23G40   29.86F WCI  17
WINONA         FAIR      34  27  75 S15G24    29.95F WCI  24
AUSTIN         FAIR      28  25  86 S17G28    29.84F WCI  16
ALBERT LEA     FAIR      30  23  74 S17G31    29.80F WCI  18
DODGE CENTER   FAIR      28  25  86 S29G39    29.82F FOG     WCI  13
PRESTON        FAIR      28  26  91 S20G33    29.91F WCI  15
OWATONNA       FAIR      30  25  80 SE28G37   29.79F HAZE    WCI  16
FARIBAULT      FAIR      30  25  80 SE23G37   29.78F HAZE    WCI  17
$$

...ELSEWHERE IN MINNESOTA...


CITY           SKY/WX    TMP DP  RH WIND       PRES   REMARKS
MINNEAPOLIS    CLOUDY    26  19  74 SE18      29.81F WCI  13
INTNL FALLS    SNOW       6   2  83 E8        29.91F VSB 1/2 WCI  -7
DULUTH         SNOW      16  12  84 SE16      29.88F VSB 1/4 WCI   1
RED WING       FAIR      28  18  64 SE14      29.88F WCI  17
REDWOOD FALLS  CLOUDY    31  23  72 S22G36    29.60F WCI  18
MANKATO        FAIR      32  25  75 S24G33    29.70F WCI  19
WORTHINGTON    CLOUDY    37  26  64 S35G43    29.57F WCI  24
FAIRMONT       MOSUNNY   34  26  72 S30G37    29.69F WCI  20
$$

...SOUTHWEST WISCONSIN...


CITY           SKY/WX    TMP DP  RH WIND       PRES   REMARKS
LA CROSSE      FAIR      32  23  69 S14G25    30.01F WCI  22
PRAIRIE DU CHI CLOUDY    27  23  87 SE12      30.08F WCI  16
BOSCOBEL       FAIR      28  23  81 S10G26    30.11F WCI  19
LONE ROCK      FAIR      30  26  85 S15G23    30.13F WCI  19
PLATTEVILLE    CLOUDY    24  24 100 SE6       30.13F VSB 3/4 WCI  17
FORT MC COY    FAIR      32  23  69 S14G26    30.03F WCI  22
CAMP DOUGLAS   CLOUDY    30  21  69 SE14G20   30.06F WCI  20
MAUSTON-NEW LI FAIR      31  23  70 S15       30.07F WCI  21
VIROQUA        FAIR      29  26  87 S21       30.03F WCI  16
WIS DELLS      FAIR      31  20  65 S22       30.11F WCI  18
$$

...ELSEWHERE IN WISCONSIN...


CITY           SKY/WX    TMP DP  RH WIND       PRES   REMARKS
MILWAUKEE      FAIR      30  26  85 S6        30.22R WCI  24
MADISON        PTSUNNY   28  23  81 S13       30.17S WCI  17
GREEN BAY      CLOUDY    23  18  81 SE6       30.16F WCI  16
EAU CLAIRE     CLOUDY    26  14  60 SE16G24   29.94F WCI  14
BLACK RVR FLS  FAIR      31  19  60 S5        30.01F WCI  27
MEDFORD        CLOUDY    19   7  60 SE8       30.01F WCI   9
WAUSAU         CLOUDY    20  10  65 SE9       30.06R WCI   9
WIS RAPIDS     FAIR      27  16  63 SE10G18   30.08F WCI  17
MARSHFIELD     CLOUDY    23  15  71 S12       30.03F WCI  12
RICE LAKE      FAIR      22  10  59 SE13      29.93F WCI  10
$$

...NORTHEAST IOWA...


CITY           SKY/WX    TMP DP  RH WIND       PRES   REMARKS
WATERLOO       FAIR      31  25  78 S24G33    29.95F WCI  17
DUBUQUE        CLOUDY    26  22  84 S22       30.10F FOG     WCI  12
DECORAH        FAIR      27  27 100 S17G31    29.96F WCI  14
MASON CITY     SUNNY     32  25  75 S20G33    29.85F WCI  20
CHARLES CITY   FAIR      28  28 100 SE22G33   29.91F WCI  15
OELWEIN        FAIR      28  28 100 SE24G36   29.99F WCI  14
$$

...ELSEWHERE IN IOWA...


CITY           SKY/WX    TMP DP  RH WIND       PRES   REMARKS
DES MOINES     CLOUDY    41  31  67 S22       29.92F
IOWA CITY      FAIR      32  26  78 SE13      30.10F WCI  22
FORT DODGE     SUNNY     37  28  70 S24G32    29.80F WCI  26
MARSHALLTOWN   CLOUDY    37  29  72 S18G33    29.94F WCI  27
CEDAR RAPIDS   FAIR      32  26  78 S20G26    30.05F WCI  20
$$

...NORTHERN ILLINOIS...


CITY           SKY/WX    TMP DP  RH WIND       PRES   REMARKS
CHICAGO-OHARE  PTSUNNY   27  23  85 S9        30.26R WCI  18
CHICAGO-MIDWAY PTSUNNY   28  24  85 S10       30.28R WCI  19
MOLINE         FAIR      29  26  89 SE17      30.16F WCI  17
ROCKFORD       FOG       22  20  92 S15       30.25S VSB 1/2 WCI   9
PEORIA         FAIR      32  28  85 S14       30.25F WCI  22
$$

NOTE: "FAIR" INDICATES FEW OR NO CLOUDS BELOW 12,000 FEET WITH NO
SIGNIFICANT WEATHER AND/OR OBSTRUCTIONS TO VISIBILITY. WIND
SPEEDS ARE IN MILES-PER-HOUR.




USA.gov is the U.S. government's official web portal to all federal, state and local government web resources and services.